Regional Weather Roundup
Issued by NWS

Home | Current Version | Previous Version | Text Only | Print | Product List | Glossary Off
Versions: 1 2 3 4 5 6 7 8 9 10 11 12 13 14 15 16 17 18 19 20 21 22 23 24 25 26 27 28 29 30 31 32 33 34 35 36 37 38 39 40 41 42 43 44 45 46 47 48 49 50

000
ASUS44 KMEG 161500
RWRTN
TENNESSEE HOURLY STATE WEATHER ROUNDUP
NATIONAL WEATHER SERVICE MEMPHIS TN
1000 AM CDT MON OCT 16 2017

TNZ002-004-019-021-049-052-054-088>092-161600-
WEST TENNESSEE

CITY           SKY/WX    TMP DP  RH WIND       PRES   REMARKS
MEMPHIS INTL   MOSUNNY   58  43  57 NE13      30.37R
NWS MEMPHIS      N/A     55 N/A N/A MISG        N/A
JACKSON        SUNNY     57  46  66 NE13      30.37R
DYERSBURG      SUNNY     57  44  62 NE13      30.39R
$$

TNZ008-025-027-028-033-062-065-066-161600-
NORTH MIDDLE TENNESSEE

CITY           SKY/WX    TMP DP  RH WIND       PRES   REMARKS
NASHVILLE      MOSUNNY   58  45  62 NE15      30.34R
CLARKSVILLE    SUNNY     54  43  66 NE15      30.36R
SMYRNA         MOSUNNY   57  44  62 N14       30.34R
CROSSVILLE     MOSUNNY   50  39  66 N8G20     30.28R
$$

TNZ061-075-076-078-094-096-097-161600-
SOUTH MIDDLE TENNESSEE

CITY           SKY/WX    TMP DP  RH WIND       PRES   REMARKS
$$

TNZ017-018-042-046-047-161600-
NORTHEAST TENNESSEE

CITY           SKY/WX    TMP DP  RH WIND       PRES   REMARKS
TRI CITIES     PTSUNNY   54  44  69 N10G17    30.25R
$$

TNZ012-013-036-069-073-074-161600-
CENTRAL EAST TENNESSEE

CITY           SKY/WX    TMP DP  RH WIND       PRES   REMARKS
KNOXVILLE      NOT AVBL
OAK RIDGE      PTSUNNY   56  45  66 VRB7      30.28R
$$

TNZ083-085-099-161600-
SOUTHEAST TENNESSEE

CITY           SKY/WX    TMP DP  RH WIND       PRES   REMARKS
CHATTANOOGA    PTSUNNY   57  42  57 N20       30.25S
$$

SKY/WX REPORTED AS FAIR MEANS FEW OR NO CLOUDS BELOW
12 THOUSAND FEET.





USA.gov is the U.S. government's official web portal to all federal, state and local government web resources and services.